This demonstration page uses our WeatherBlox Daily Observations layout. Learn more.

Hourly Observations for August 6, 2017

Temp ( °F °C ) Dew Point ( °F °C ) Humidity (%) Winds ( mph kmh ) Pressure ( in mb ) Visibility ( mi km ) Precip ( " mm )
12:15 am 00:15 Clear 64 18 59 15 83 83 W 8 13 30.09 1019 10 16.09344 0 0
12:35 am 00:35 Clear 64 18 59 15 83 83 NW 9 15 30.09 1019 10 16.09344 0 0
12:55 am 00:55 Clear 68 20 59 15 73 73 SSW 6 9 30.12 1020 10 16.09344 0 0
1:15 am 01:15 Clear 64 18 59 15 83 83 Calm 30.12 1020 10 16.09344 0 0
1:35 am 01:35 Clear 64 18 59 15 83 83 Calm 30.09 1019 10 16.09344 0 0
1:55 am 01:55 Clear 64 18 59 15 83 83 SW 3 6 30.12 1020 10 16.09344 0 0
2:15 am 02:15 Clear 64 18 59 15 83 83 Calm 30.09 1019 10 16.09344 0 0
2:35 am 02:35 Clear 64 18 59 15 83 83 Calm 30.09 1019 10 16.09344 0 0
2:55 am 02:55 Clear 63 17 59 15 88 88 Calm 30.09 1019 10 16.09344 0 0
3:15 am 03:15 Clear 64 18 59 15 83 83 Calm 30.09 1019 10 16.09344 0 0
3:35 am 03:35 Clear 61 16 59 15 94 94 SSW 5 7 30.09 1019 10 16.09344 0 0
3:55 am 03:55 Clear 63 17 59 15 88 88 Calm 30.09 1019 10 16.09344 0 0
4:15 am 04:15 Clear 61 16 59 15 94 94 Calm 30.09 1019 10 16.09344 0 0
4:35 am 04:35 Clear 61 16 61 16 100 100 Calm 30.09 1019 10 16.09344 0 0
4:55 am 04:55 Clear 61 16 59 15 94 94 Calm 30.09 1019 10 16.09344 0 0
5:15 am 05:15 Clear 61 16 59 15 94 94 SSW 3 6 30.09 1019 10 16.09344 0 0
5:35 am 05:35 Clear 61 16 59 15 94 94 Calm 30.12 1020 10 16.09344 0 0
5:55 am 05:55 Clear 61 16 59 15 94 94 WSW 3 6 30.12 1020 10 16.09344 0 0
6:15 am 06:15 Clear 59 15 59 15 100 100 W 3 6 30.12 1020 10 16.09344 0 0
6:35 am 06:35 Sunny 61 16 59 15 94 94 NW 3 6 30.12 1020 10 16.09344 0 0
6:55 am 06:55 Sunny 61 16 61 16 100 100 Calm 30.12 1020 10 16.09344 0 0
7:15 am 07:15 Sunny 63 17 61 16 94 94 Calm 30.12 1020 10 16.09344 0 0
7:35 am 07:35 Sunny 63 17 61 16 94 94 Calm 30.12 1020 10 16.09344 0 0
7:55 am 07:55 Sunny 64 18 61 16 88 88 Calm 30.15 1021 10 16.09344 0 0
8:15 am 08:15 Sunny 64 18 61 16 88 88 Calm 30.15 1021 10 16.09344 0 0
8:35 am 08:35 Sunny 64 18 63 17 94 94 Calm 30.15 1021 10 16.09344 0 0
8:55 am 08:55 Sunny 66 19 63 17 88 88 Calm 30.15 1021 10 16.09344 0 0
9:15 am 09:15 Sunny 66 19 61 16 83 83 Calm 30.15 1021 10 16.09344 0 0
9:35 am 09:35 Sunny 68 20 63 17 83 83 Calm 30.15 1021 10 16.09344 0 0
9:55 am 09:55 Sunny 68 20 63 17 83 83 Calm 30.15 1021 10 16.09344 0 0
10:15 am 10:15 Sunny 68 20 63 17 83 83 Calm 30.15 1021 10 16.09344 0 0
10:35 am 10:35 Sunny 68 20 63 17 83 83 Calm 30.15 1021 10 16.09344 0 0
10:55 am 10:55 Sunny 72 22 64 18 78 78 Calm 30.15 1021 10 16.09344 0 0
11:15 am 11:15 Sunny 72 22 63 17 73 73 Calm 30.15 1021 10 16.09344 0 0
11:35 am 11:35 Sunny 75 24 63 17 65 65 Calm 30.18 1022 10 16.09344 0 0
11:55 am 11:55 Sunny 77 25 63 17 61 61 Calm 30.15 1021 10 16.09344 0 0
12:15 pm 12:15 Sunny 77 25 63 17 61 61 Calm 30.15 1021 10 16.09344 0 0
12:35 pm 12:35 Sunny 77 25 63 17 61 61 Calm 30.15 1021 10 16.09344 0 0
12:55 pm 12:55 Sunny 77 25 61 16 57 57 Calm 30.15 1021 10 16.09344 0 0
1:15 pm 13:15 Sunny 77 25 61 16 57 57 Calm 30.15 1021 10 16.09344 0 0
1:35 pm 13:35 Sunny 77 25 61 16 57 57 Calm 30.15 1021 10 16.09344 0 0
1:55 pm 13:55 Sunny 79 26 63 17 58 58 Calm 30.15 1021 10 16.09344 0 0
2:15 pm 14:15 Sunny 77 25 61 16 57 57 Calm 30.15 1021 10 16.09344 0 0
2:35 pm 14:35 Sunny 79 26 61 16 54 54 Calm 30.15 1021 10 16.09344 0 0
2:55 pm 14:55 Sunny 77 25 61 16 57 57 Calm 30.15 1021 10 16.09344 0 0
3:15 pm 15:15 Sunny 77 25 63 17 61 61 NNE 7 11 30.15 1021 10 16.09344 0 0
3:35 pm 15:35 Sunny 77 25 64 18 65 65 NE 6 9 30.12 1020 10 16.09344 0 0
3:55 pm 15:55 Sunny 79 26 64 18 61 61 E 5 7 30.12 1020 10 16.09344 0 0
4:15 pm 16:15 Sunny 79 26 63 17 58 58 Calm 30.12 1020 10 16.09344 0 0
4:35 pm 16:35 Sunny 79 26 63 17 58 58 Calm 30.12 1020 10 16.09344 0 0
4:55 pm 16:55 Sunny 79 26 63 17 58 58 Calm 30.12 1020 10 16.09344 0 0
5:15 pm 17:15 Sunny 79 26 64 18 61 61 ESE 5 7 30.12 1020 10 16.09344 0 0
5:35 pm 17:35 Sunny 79 26 64 18 61 61 SE 5 7 30.12 1020 10 16.09344 0 0
5:55 pm 17:55 Sunny 79 26 64 18 61 61 ENE 3 6 30.12 1020 10 16.09344 0 0
6:15 pm 18:15 Sunny 79 26 64 18 61 61 ENE 3 6 30.12 1020 10 16.09344 0 0
6:35 pm 18:35 Sunny 79 26 63 17 58 58 Calm 30.12 1020 10 16.09344 0 0
6:55 pm 18:55 Sunny 79 26 64 18 61 61 ENE 3 6 30.12 1020 10 16.09344 0 0
7:15 pm 19:15 Sunny 77 25 64 18 65 65 ENE 3 6 30.12 1020 10 16.09344 0 0
7:35 pm 19:35 Partly Cloudy 77 25 64 18 65 65 ESE 3 6 30.09 1019 10 16.09344 0 0
7:55 pm 19:55 Partly Cloudy 77 25 64 18 65 65 Calm 30.09 1019 10 16.09344 0 0
8:15 pm 20:15 Partly Cloudy 77 25 64 18 65 65 Calm 30.09 1019 10 16.09344 0 0
8:35 pm 20:35 Mostly Cloudy 77 25 64 18 65 65 Calm 30.09 1019 10 16.09344 0 0
8:55 pm 20:55 Cloudy 75 24 64 18 69 69 Calm 30.09 1019 10 16.09344 0 0
9:15 pm 21:15 Cloudy 75 24 66 19 74 74 Calm 30.12 1020 10 16.09344 0 0
9:35 pm 21:35 Mostly Cloudy 73 23 66 19 78 78 Calm 30.12 1020 10 16.09344 0 0
9:55 pm 21:55 Cloudy 73 23 66 19 78 78 Calm 30.12 1020 10 16.09344 0 0
10:15 pm 22:15 Cloudy 73 23 68 20 83 83 NE 3 6 30.12 1020 10 16.09344 0 0
10:35 pm 22:35 Cloudy 73 23 68 20 83 83 Calm 30.12 1020 10 16.09344 0 0
10:55 pm 22:55 Cloudy 73 23 68 20 83 83 NNE 3 6 30.12 1020 10 16.09344 0 0
11:15 pm 23:15 Cloudy 73 23 68 20 83 83 Calm 30.12 1020 10 16.09344 0 0
11:35 pm 23:35 Cloudy 73 23 68 20 83 83 Calm 30.12 1020 10 16.09344 0 0
11:55 pm 23:55 Cloudy 72 22 68 20 88 88 Calm 30.12 1020 10 16.09344 0 0

Powered by AerisWeather